Location: *
(51.4660°N, 0.3360°W)
Time: 14:28:38
(UTC+00:00)

Ariane Rocket - Pass Details

Date: 19 September 2019
Orbit: 761 x 769 km, 98.8° (Epoch: 15 October)

Event Time Altitude Azimuth Distance (km) Brightness Sun altitude
Rises 19:03:31 0° 171° (S) 3,214 6.0 -9.5°
Reaches altitude 10° 19:05:49 10° 175° (S) 2,294 5.3 -9.8°
Maximum altitude 19:10:50 66° 257° (WSW) 839 3.5 -10.6°
Drops below altitude 10° 19:15:55 10° 340° (NNW) 2,316 6.0 -11.3°
Sets 19:18:16 0° 343° (NNW) 3,249 6.8 -11.7°
